{"data":{"norad_id":56964,"intl_designator":"2023-084AJ","name":"AFR-1","alt_names":[],"object_type":"PAYLOAD","status":"ACTIVE","operator":null,"country":"IND","launch_date":"2023-06-12","launch_site_code":"AFWTR","launch_vehicle":null,"mission":null,"orbit_class":"UNKNOWN","rcs_meters":null,"size_class":null,"mass_kg":null,"dimensions":null,"purposes":[],"wikipedia_slug":null,"has_3d_model":false,"image_url":null,"decayed_at":null,"tle_current":{"epoch":"2026-05-25T04:30:20.132928Z","epoch_age_seconds":58556,"freshness":"FRESH","line1":"1 56964U 23084AJ  26145.18773302  .00004473  00000+0  16471-3 0  9995","line2":"2 56964  97.6239 281.3338 0011813  64.6073 295.6387 15.28325950163714","mean_motion":15.2832595,"eccentricity":0.0011813,"inclination_deg":97.6239,"raan_deg":281.3338,"arg_perigee_deg":64.6073,"mean_anomaly_deg":295.6387,"bstar":0.00016471,"rev_number":16371,"period_min":94.220738710875,"perigee_km":472.71388033098,"apogee_km":488.91884354389,"semimajor_km":6858.9533619374,"source":"CELESTRAK","updated_at":"2026-05-25T13:37:59.790293Z"}}}